TITAN 4 CENTAUR R/B, 22989

Orbit data source: Space-Track

TITAN 4 CENTAUR R/B, 22989 is space debris in GEO originally from a launch on Mon, 07 Feb 1994 UTC launched from the Air Force Eastern Test Range (AFETR). Debris objects in space refer to the collection of defunct objects orbiting the Earth. Examples of debris include non-operational satellites, rocket bodies, and fragments generated from explosions, collisions, or faulty payload assembly.

Not visible in the next 10 days
Identifier
22989, 1994-009B
Orbit
GEO
Country
Flag of USUS
Related business
Manufacturer
LMA/San Diego
Mission
Spacecraft
Bus & Motor
CENTAUR T, Unknown motor
Mass
~2,775 kg wet, ~2,775 kg dry
Launch date (UTC)
1994-02-07 (32 years ago)
Launch vehicle
Unknown
Launch site
Air Force Eastern Test Range (AFETR)
Object type
Payload
Rocket body
Debris
Shape & HBR
Cyl, 4.5 m
Radar Cross Section
37.970 m²

Expand to show TLE details & history
Last TLE update: 20 hours ago

TLE from 20 hours ago
0 TITAN 4 CENTAUR R/B
1 22989U 94009B   26061.29882417 -.00000373  00000-0  00000-0 0  9992
2 22989  16.7056  23.8105 0015111 239.9135 119.9450  1.00594989 24210
Epoch: 2026-03-02T07:10Z
TLE epoch observation values (Epoch: 2026-03-02T07:10:18.408Z)
Latitude
0.00001°
Longitude
116.16143°
Altitude
35,727.335 km
Speed
3.076 km/s
True Right ascension
01h 35m 19s
True Declination
0° 00' 00"
Sunlit
Object was in daylight at epoch
Visualization orbit readout
Latitude
Unknown
Longitude
Unknown
Altitude
Unknown
Speed
Unknown
Apparent Right ascension
Unknown
Apparent Declination
Unknown
Sunlit
N/A
Visualization observer readout
Local Sidereal Time
07:12:49
Azimuth
Unknown
Elevation
Unknown
Doppler factor
Unknown
Orbital elements
Apogee altitude
35,760.755 km
Perigee altitude
35,633.595 km
Semi-major axis
42,075.312 km
Eccentricity
0.00151
Inclination
16.7056°
RAAN
23.8105°
Arg. of periapsis
239.9135°
True anomaly
120.0949°
Mean anomaly
119.945°
Eccentric anomaly
120.01997°
Mean motion
0.25148 °/min
Orbital period
1,431.53 mins
BSTAR
0
Loading maneuver chart data...
Computing Atmospheric mass density...
Loading historical data...
Loading historical data...
Loading historical data...
Loading historical data...
Loading historical data...
Loading historical data...
Loading historical data...
Other satellites on launch #9 in the year 1994 (1994-02-07 UTC)

Documentation

Showing up to 5 results
|